Temperature
13 13 13 12 12 12 12 12 12 12 12 12 12 12 12 12 12 12 12 12 11 11 11 11 11 12 11 12 12 12 12 12 11 11 11 11 11 11 11 11 11 11 11
12 12 12 12 12 12 12 12 12 12 12 12 12 12 12 12 12 11 12 11 11 11 11 11 11 11 11 11 11 11 11 11 11 11 11 11 11 11 11 11 11 11 11
12 12 12 12 12 11 11 11 11 11 11 11 11 11 11 11 11 11 11 11 11 11 11 11 11 11 11 11 11 11 11 11 11 11 10 10 10 11 11 10 10 10 10
11 11 11 11 11 11 11 11 11 11 11 11 11 11 11 11 11 11 11 11 11 11 11 11 11 11 10 10 11 11 10 10 10 10 10 10 10 10 10 10 10 10 10
11 11 11 11 11 11 11 11 11 11 11 11 11 11 11 11 10 10 10 10 10 10 10 10 10 10 10 10 10 10 10 10 10 10 10 10 10 10 10 10 10 10 10
10 10 10 10 10 10 10 10 10 10 10 10 10 10 10 10 10 10 10 10 10 10 10 10 10 10 10 10 10 10 10 10 10 10 10 10 10 9 9 9 9 9 9
10 10 10 10 10 10 10 10 10 10 10 10 10 10 10 10 10 10 10 10 10 10 10 10 10 10 10 10 10 10 10 10 10 10 10 10 10 9 9 9 9 9 9
10 10 10 10 10 9 9 10 10 10 10 10 10 10 9 9 9 9 9 9 9 9 9 9 9 10 10 10 9 9 9 10 9 9 9 9 9 9 9 9 9 9 9
9 9 9 9 9 9 9 9 9 9 9 9 9 9 9 9 9 9 9 9 9 9 9 9 9 9 9 9 9 9 9 9 9 9 9 9 9 9 9 9 9 9 9
9 9 9 9 9 9 9 9 9 9 9 9 9 9 9 9 9 9 9 8 8 8 9 9 9 9 9 9 9 9 9 9 9 9 9 9 9 9 9 9 9 8 8
9 9 9 8 8 8 8 8 8 8 8 8 8 8 8 8 8 8 8 8 8 8 8 8 8 9 8 9 8 8 9 9 8 8 8 8 8 8 8 8 8 8 8
8 8 8 8 8 8 8 8 8 8 8 8 8 8 8 8 8 8 8 8 8 8 8 8 8 8 8 8 8 8 8 8 8 8 8 8 8 8 8 8 8 8 8
8 8 7 7 7 7 7 7 7 7 7 7 7 7 7 7 7 7 7 7 7 7 7 7 7 8 8 8 8 8 8 7 7 7 7 7 7 7 7 8 8 8 7
7 7 7 7 7 7 7 7 7 7 6 6 7 7 7 6 6 6 7 7 7 7 7 7 7 7 7 7 7 7 7 7 7 7 7 7 7 7 7 7 7 7 7
7 7 7 6 6 6 6 6 6 6 6 6 6 6 6 6 6 6 6 6 6 6 6 6 6 6 6 6 6 6 7 7 7 6 6 6 7 7 6 7 7 7 7
7 6 6 6 6 6 6 6 6 6 6 6 6 6 6 6 6 6 6 6 6 6 6 5 5 6 6 6 6 6 6 6 6 6 6 6 6 6 6 6 6 6 6
6 6 6 6 5 5 5 5 5 5 5 5 5 5 5 5 5 5 5 5 5 5 5 5 5 5 5 5 5 5 6 6 6 6 6 6 6 6 6 6 6 6 6
6 6 6 5 5 5 5 5 5 5 5 5 5 5 5 5 5 5 5 5 5 4 4 4 5 5 5 5 5 5 5 5 5 5 5 5 5 5 5 5 5 5 5
6 5 5 5 5 5 4 4 4 4 4 4 4 4 4 4 4 4 4 4 4 4 4 4 4 4 4 4 4 4 4 5 5 5 5 5 5 5 5 5 5 5 5
5 5 5 5 4 4 4 4 4 4 4 3 3 4 4 4 4 4 3 3 3 3 3 3 3 3 4 4 4 4 4 4 4 4 4 4 4 5 5 5 4 4 4
5 5 5 4 4 4 4 3 3 3 3 3 3 3 3 3 3 3 3 3 3 3 3 3 3 3 3 3 4 4 4 4 4 4 4 4 4 4 4 4 4 4 4
4 4 4 4 4 4 3 3 3 3 3 3 3 3 3 3 3 3 3 3 3 3 3 3 3 3 3 3 3 3 3 3 3 3 3 4 4 4 4 4 4 4 4
4 4 4 3 3 3 3 3 3 3 3 2 2 3 3 3 3 3 2 2 2 2 3 3 2 3 3 3 3 3 3 3 3 3 3 3 3 3 3 3 3 3 3
4 3 3 3 3 3 3 3 2 2 2 2 2 2 2 2 2 2 2 2 2 2 2 2 2 2 2 2 2 2 2 2 2 2 2 2 3 3 3 3 3 3 3
3 3 3 3 3 2 2 2 2 2 2 2 2 2 2 2 2 2 2 2 2 2 2 2 2 2 2 2 2 2 2 2 2 2 2 2 2 2 2 2 2 2 2
3 3 3 2 2 2 2 2 2 2 1 2 2 2 2 2 2 2 2 2 2 2 2 2 2 2 2 2 2 2 2 2 2 2 2 2 2 2 2 2 2 2 2
Wind_Speed
1 1 1 1 2 2 2 2 2 2 3 3 3 3 3 4 4 3 4 3 4 4 4 4 4 3 3 3 3 3 3 3 3 2 1 2 2 2 3 2 3 4 5
1 1 2 2 2 2 2 2 3 2 2 3 3 3 3 3 4 4 5 5 5 4 4 5 5 4 4 4 3 4 3 3 3 3 2 2 2 2 2 2 2 2 3
2 2 2 2 2 2 2 2 3 2 3 3 3 4 3 4 4 5 5 5 5 5 5 5 5 5 5 4 4 4 3 3 3 4 3 2 2 2 2 2 2 2 2
2 2 2 2 2 3 2 2 2 2 3 3 3 3 3 4 4 5 5 5 5 5 5 5 5 5 5 5 5 5 4 4 4 4 3 3 3 2 3 3 3 2 3
2 2 3 3 2 2 2 2 2 2 2 3 3 2 2 3 3 4 5 5 6 5 5 5 5 4 2 3 4 4 5 4 4 4 4 4 4 3 4 4 4 3 3
2 3 3 3 2 2 1 1 2 2 2 2 2 2 2 2 1 3 4 5 5 5 5 5 5 4 3 4 4 4 5 6 6 5 5 6 5 5 4 4 4 4 3
2 3 3 3 3 2 2 2 2 2 2 2 2 2 2 1 1 1 3 3 3 4 5 5 4 4 5 5 5 6 7 7 6 6 7 7 6 6 6 7 6 5 4
3 3 3 3 3 3 2 2 2 2 2 2 2 2 2 1 0 1 2 3 3 4 4 5 5 5 4 5 5 6 6 7 7 7 7 6 6 5 7 7 7 6 4
3 4 4 3 3 3 3 3 2 2 2 2 2 2 2 2 1 0 2 3 3 4 4 4 5 5 3 4 6 6 6 6 5 6 5 4 3 4 5 4 5 5 5
3 4 4 4 4 3 3 3 2 2 2 2 2 2 3 2 1 1 2 3 4 3 3 3 3 4 3 5 7 7 7 6 5 6 6 6 6 6 8 7 6 6 5
4 4 4 4 3 3 3 2 2 2 2 2 2 2 2 2 1 0 2 3 4 4 4 3 3 2 4 4 6 6 6 5 6 6 5 5 5 5 6 7 6 6 6
4 3 3 3 3 2 3 2 2 2 2 2 2 2 2 2 2 1 2 3 4 4 4 4 3 2 4 4 5 4 4 4 5 4 5 5 5 5 5 6 7 7 7
4 3 3 3 2 2 2 2 2 2 2 2 2 2 2 2 2 2 2 3 4 4 3 2 2 2 4 4 5 5 5 4 5 5 5 6 5 5 5 4 5 6 6
4 4 3 3 2 2 2 2 2 3 3 3 3 3 3 3 2 2 2 2 3 3 3 2 2 2 3 3 3 4 4 4 4 5 5 5 5 5 5 5 5 5 5
4 4 3 3 3 3 3 2 3 3 3 3 3 3 3 3 3 3 2 2 2 3 3 2 2 2 2 2 3 3 3 4 4 5 5 5 5 5 5 5 5 5 6
4 4 3 3 2 3 3 2 1 2 2 2 3 4 3 3 2 1 2 2 1 1 2 2 3 3 3 3 3 3 3 3 4 4 5 5 5 5 5 5 5 5 6
5 4 3 3 3 3 3 3 3 2 1 1 2 3 3 3 2 1 1 1 1 1 2 3 3 3 3 3 3 4 4 4 4 4 5 5 5 5 5 5 5 6 6
5 4 4 3 3 3 3 3 3 3 3 3 2 2 2 3 2 2 1 1 1 2 2 3 3 3 4 4 4 4 4 4 4 4 4 5 5 5 5 5 6 6 6
4 3 3 3 3 3 3 3 3 4 4 3 3 2 1 2 2 1 2 2 2 3 3 3 3 3 4 4 4 4 4 4 4 4 4 5 5 6 6 6 6 6 7
4 4 4 4 3 3 3 4 3 3 4 4 3 3 2 2 2 2 2 3 3 3 3 4 4 4 4 4 4 4 4 4 4 5 5 5 5 5 6 7 6 6 6
4 4 5 4 3 3 3 4 4 4 4 4 4 3 3 4 3 4 3 3 4 4 4 4 4 4 5 5 4 5 5 5 5 5 5 6 6 6 6 6 7 7 6
3 3 3 3 3 3 3 4 4 4 4 5 4 3 3 4 4 4 4 4 4 4 4 4 4 4 5 5 5 5 6 6 6 6 6 6 6 6 6 6 6 6 6
3 3 3 3 3 3 3 3 3 3 4 4 4 4 3 4 4 4 4 4 4 4 4 4 4 4 5 5 5 5 6 6 6 6 6 7 6 7 7 7 8 7 7
3 4 3 3 3 3 3 3 3 3 4 4 4 4 4 4 4 5 4 4 4 4 4 4 5 6 7 6 6 6 7 7 7 7 8 7 7 7 7 7 8 8 8
3 3 3 3 3 3 3 3 3 4 4 4 4 4 4 4 4 4 4 4 5 5 5 5 5 6 8 8 7 7 7 7 8 7 7 7 8 8 8 8 8 8 8
2 3 3 3 3 3 3 4 4 4 4 4 4 4 4 4 4 4 4 4 4 4 5 5 6 7 8 8 8 8 8 8 8 8 8 7 7 7 8 7 9 9 9
Wind_Direction
332 320 275 270 268 258 270 268 264 252 246 240 244 241 236 233 227 222 228 228 232 226 221 222 224 225 218 218 216 219 226 220 220 230 202 175 162 163 133 149 153 151 144
294 297 292 284 261 252 260 265 265 268 259 247 242 242 238 236 231 228 231 231 236 237 234 227 221 216 223 221 220 218 218 214 208 204 192 186 193 183 172 178 168 158 155
295 281 295 302 280 263 250 261 267 268 267 255 244 244 240 235 231 230 233 235 237 237 238 239 230 221 221 217 220 219 219 214 205 199 191 170 194 191 195 199 193 177 179
314 287 284 296 296 279 259 262 265 266 266 261 252 249 243 239 236 237 237 238 235 234 237 241 239 234 232 222 217 216 216 212 206 201 195 184 186 193 202 203 203 200 209
300 294 277 281 294 291 272 268 262 262 264 257 254 255 250 241 242 241 238 239 235 232 235 237 235 237 258 233 223 217 213 212 207 208 206 201 194 191 205 208 211 203 212
294 293 284 277 282 273 279 282 285 278 271 254 249 249 256 260 318 281 256 242 240 236 235 235 224 212 211 214 219 223 227 222 216 216 219 216 215 212 212 212 209 210 221
297 297 297 290 273 268 270 267 271 274 276 270 263 266 267 286 338 270 271 255 243 245 244 238 227 219 212 221 213 212 221 227 234 231 226 227 226 216 212 217 219 221 232
296 297 294 295 286 270 264 263 267 266 264 262 263 256 255 259 115 254 271 251 248 250 251 245 235 227 221 229 226 226 230 224 222 231 237 238 235 228 219 224 225 226 237
296 302 296 287 278 274 269 270 270 268 271 272 264 248 244 245 113 201 264 257 254 253 250 246 244 240 225 232 229 227 230 232 213 223 252 252 248 227 210 213 211 213 229
297 297 295 291 277 271 271 270 275 276 276 267 258 245 248 253 164 213 266 256 261 264 261 251 242 254 238 227 227 225 229 231 226 217 223 225 223 208 203 217 217 222 229
302 298 298 295 284 276 274 266 271 278 278 275 266 246 242 256 214 208 288 270 272 270 261 256 248 235 242 240 243 234 236 241 230 227 224 222 217 213 211 222 228 230 234
298 295 296 299 296 285 276 274 268 266 262 266 265 265 265 256 273 264 267 276 292 273 266 261 255 226 237 234 234 234 233 234 233 231 228 224 221 220 222 222 227 231 242
289 288 289 291 293 286 272 266 266 258 255 256 255 260 266 271 267 271 255 257 281 276 279 296 283 235 232 228 220 223 221 224 227 230 231 232 232 230 227 223 226 228 241
277 282 284 285 293 290 282 272 264 258 254 252 258 262 268 269 280 288 278 270 262 266 274 255 224 209 220 227 217 221 228 228 229 233 240 243 239 231 226 225 225 222 232
275 274 271 270 275 282 284 283 272 270 279 273 265 261 260 259 278 312 296 279 277 272 269 257 251 238 227 225 226 227 231 231 236 240 243 244 241 236 233 232 233 232 235
269 268 260 256 261 267 278 298 308 280 309 303 303 297 281 297 320 312 315 325 324 298 256 240 244 246 237 235 237 237 233 236 240 241 242 243 242 238 235 232 232 236 239
264 263 261 256 253 259 265 274 285 271 247 257 262 285 290 310 315 309 300 281 241 208 235 243 244 247 247 246 248 246 244 242 242 243 241 243 246 244 240 236 234 239 245
267 259 256 257 253 253 257 263 269 276 278 279 260 246 258 264 279 283 269 214 227 224 248 256 257 255 256 254 251 251 253 252 248 250 253 250 248 246 244 243 241 243 247
271 263 258 257 255 256 256 256 256 262 271 276 284 274 240 242 233 221 207 239 243 246 252 260 265 263 259 256 255 253 250 250 252 250 253 258 254 249 246 246 246 247 248
264 262 260 252 248 250 251 252 252 254 258 264 267 276 272 256 254 250 245 256 255 255 256 257 261 265 262 260 254 253 251 248 252 252 254 257 258 255 251 249 248 246 247
264 252 244 249 248 248 249 250 251 253 254 258 260 262 272 255 248 246 248 252 255 258 260 259 260 265 260 257 259 254 253 254 253 252 252 253 254 256 258 253 250 249 250
255 252 250 251 251 250 252 250 251 253 253 257 263 255 238 249 250 248 252 256 258 261 264 263 262 263 265 260 257 258 258 257 258 258 258 256 255 256 257 257 253 251 250
245 243 245 247 250 247 248 251 251 251 253 255 258 261 253 252 251 253 257 260 263 267 270 269 267 270 270 269 266 261 260 261 264 264 260 256 253 253 252 253 254 253 251
236 235 238 238 243 247 250 252 251 252 258 259 259 259 258 259 259 261 263 265 264 267 271 271 268 272 275 273 270 268 268 275 278 272 262 258 255 253 251 250 251 250 249
230 231 235 237 241 245 250 250 249 252 258 260 260 261 263 261 261 262 265 268 271 273 273 276 277 276 276 274 273 275 279 278 278 278 271 264 258 254 252 251 249 252 251
226 227 233 237 241 245 248 249 253 256 257 259 260 262 264 261 259 261 264 267 273 274 273 273 279 283 285 278 276 281 281 273 267 268 268 263 261 258 256 252 250 248 251
Height
1527 1526 1526 1526 1526 1526 1526 1526 1526 1526 1526 1525 1526 1526 1526 1526 1526 1527 1527 1528 1528 1529 1529 1529 1529 1530 1530 1531 1531 1532 1532 1533 1533 1533 1533 1533 1533 1533 1534 1534 1535 1535 1535
1525 1524 1524 1524 1524 1524 1524 1524 1523 1523 1523 1523 1523 1523 1523 1523 1524 1524 1525 1525 1526 1526 1526 1527 1527 1527 1528 1528 1529 1530 1530 1531 1531 1531 1531 1531 1532 1532 1532 1533 1533 1533 1534
1523 1522 1522 1522 1522 1522 1521 1521 1521 1521 1521 1520 1520 1520 1520 1520 1521 1521 1522 1523 1523 1524 1524 1524 1524 1525 1525 1526 1526 1527 1528 1528 1529 1529 1529 1529 1529 1530 1530 1531 1532 1532 1532
1521 1520 1520 1519 1519 1519 1519 1518 1518 1518 1518 1518 1518 1517 1517 1517 1518 1518 1519 1519 1520 1521 1521 1521 1522 1522 1522 1523 1523 1524 1525 1526 1527 1527 1527 1527 1527 1528 1528 1529 1530 1530 1530
1518 1518 1517 1517 1517 1516 1516 1515 1515 1515 1515 1515 1515 1515 1515 1515 1515 1515 1515 1516 1517 1518 1518 1518 1519 1519 1519 1520 1520 1521 1522 1523 1524 1524 1525 1525 1525 1525 1526 1527 1527 1528 1528
1516 1516 1515 1515 1514 1513 1513 1513 1513 1512 1512 1512 1512 1512 1512 1512 1512 1512 1512 1513 1514 1515 1515 1515 1515 1516 1516 1516 1517 1518 1519 1520 1521 1521 1522 1522 1523 1523 1524 1524 1525 1526 1526
1514 1513 1513 1512 1511 1511 1511 1510 1510 1509 1509 1509 1509 1509 1509 1509 1509 1509 1509 1510 1511 1511 1512 1512 1512 1512 1513 1514 1514 1514 1515 1516 1517 1518 1519 1519 1520 1520 1521 1522 1522 1523 1524
1512 1511 1510 1509 1509 1508 1508 1507 1507 1507 1506 1506 1506 1506 1506 1506 1506 1506 1506 1507 1508 1508 1508 1508 1509 1509 1509 1510 1511 1511 1512 1513 1513 1514 1516 1516 1517 1517 1518 1519 1519 1520 1521
1509 1508 1508 1507 1506 1505 1505 1505 1504 1504 1503 1503 1503 1503 1503 1503 1503 1503 1503 1504 1504 1505 1505 1505 1505 1505 1506 1506 1507 1508 1508 1509 1510 1510 1511 1512 1513 1513 1514 1515 1515 1516 1517
1507 1506 1505 1504 1504 1503 1502 1502 1502 1501 1501 1501 1501 1501 1500 1500 1500 1500 1500 1501 1501 1501 1501 1501 1501 1501 1502 1502 1503 1504 1504 1505 1506 1507 1508 1508 1509 1510 1510 1511 1512 1513 1513
1504 1503 1502 1501 1501 1500 1499 1499 1498 1498 1498 1498 1498 1498 1498 1498 1497 1497 1497 1498 1497 1497 1497 1497 1497 1497 1497 1497 1498 1499 1500 1502 1503 1503 1504 1504 1505 1506 1506 1507 1508 1509 1510
1501 1500 1499 1498 1498 1497 1497 1496 1496 1496 1495 1495 1495 1495 1495 1495 1495 1494 1494 1494 1494 1494 1493 1493 1493 1493 1493 1494 1494 1495 1496 1497 1498 1499 1500 1500 1501 1501 1502 1503 1503 1504 1505
1498 1498 1497 1496 1495 1495 1494 1493 1493 1492 1492 1492 1492 1492 1491 1491 1491 1491 1490 1490 1490 1490 1490 1490 1490 1490 1490 1490 1491 1491 1492 1493 1494 1495 1495 1496 1497 1497 1498 1498 1499 1500 1500
1496 1495 1494 1493 1492 1492 1491 1491 1490 1489 1489 1488 1488 1488 1488 1488 1487 1487 1486 1486 1486 1486 1486 1486 1486 1486 1487 1487 1487 1488 1488 1489 1490 1491 1492 1492 1493 1493 1493 1494 1494 1495 1495
1493 1492 1491 1490 1489 1489 1488 1487 1487 1487 1486 1486 1485 1485 1485 1484 1484 1484 1483 1483 1482 1483 1483 1483 1483 1483 1483 1483 1484 1484 1484 1485 1486 1487 1488 1488 1488 1488 1489 1489 1490 1490 1490
1489 1488 1488 1487 1486 1486 1485 1484 1483 1483 1483 1482 1482 1482 1482 1482 1481 1480 1480 1479 1479 1479 1480 1479 1479 1480 1480 1480 1480 1480 1481 1481 1482 1483 1483 1483 1484 1484 1484 1484 1485 1485 1485
1486 1485 1484 1483 1483 1482 1481 1481 1480 1480 1480 1479 1479 1478 1478 1478 1477 1477 1477 1477 1476 1476 1476 1476 1476 1477 1477 1477 1477 1477 1477 1477 1478 1478 1478 1478 1479 1479 1480 1480 1480 1480 1480
1482 1481 1480 1480 1479 1478 1478 1478 1477 1477 1476 1476 1475 1475 1475 1474 1474 1474 1474 1473 1473 1473 1473 1473 1473 1473 1473 1473 1473 1473 1473 1473 1473 1474 1474 1474 1474 1474 1474 1475 1475 1475 1475
1477 1477 1476 1476 1475 1475 1474 1474 1474 1474 1473 1472 1472 1471 1471 1471 1471 1470 1470 1470 1469 1469 1469 1469 1469 1469 1469 1469 1469 1469 1469 1469 1469 1469 1469 1469 1469 1470 1470 1470 1470 1470 1471
1473 1473 1472 1472 1471 1471 1471 1471 1470 1470 1470 1469 1468 1468 1468 1467 1467 1467 1466 1466 1466 1466 1466 1466 1465 1465 1465 1465 1465 1465 1464 1464 1464 1464 1464 1465 1465 1465 1465 1465 1465 1465 1465
1469 1468 1468 1468 1468 1467 1467 1467 1467 1466 1466 1466 1465 1465 1464 1464 1463 1463 1463 1463 1463 1462 1462 1462 1461 1461 1460 1460 1460 1460 1460 1460 1460 1460 1460 1460 1460 1460 1460 1460 1460 1460 1461
1464 1464 1464 1464 1463 1463 1463 1463 1463 1463 1463 1462 1462 1461 1461 1460 1460 1460 1459 1459 1459 1459 1458 1458 1457 1457 1456 1456 1455 1455 1455 1455 1455 1455 1455 1455 1455 1455 1455 1455 1455 1455 1455
1460 1460 1460 1460 1460 1459 1459 1459 1459 1459 1459 1458 1458 1457 1457 1456 1456 1455 1455 1455 1454 1454 1453 1453 1453 1452 1452 1451 1451 1451 1450 1450 1450 1450 1450 1450 1449 1449 1449 1449 1449 1449 1449
1457 1457 1456 1456 1456 1456 1455 1455 1455 1455 1455 1455 1454 1453 1452 1452 1451 1451 1451 1450 1450 1449 1449 1448 1448 1447 1447 1446 1446 1446 1445 1445 1445 1444 1444 1444 1444 1444 1444 1444 1443 1444 1444
1453 1453 1453 1453 1452 1452 1452 1451 1451 1451 1451 1450 1450 1449 1448 1447 1447 1446 1446 1445 1445 1444 1444 1443 1443 1442 1442 1441 1441 1440 1440 1440 1439 1439 1439 1439 1438 1438 1438 1438 1438 1438 1438
1450 1450 1450 1449 1449 1449 1448 1448 1447 1447 1447 1446 1445 1444 1443 1443 1442 1442 1441 1441 1440 1439 1439 1439 1438 1437 1437 1436 1435 1435 1435 1434 1434 1433 1433 1433 1433 1432 1432 1432 1432 1432 1432